TimeMDT,TemperatureF,Dew PointF,Humidity,Sea Level PressureIn,VisibilityMPH,Wind Direction,Wind SpeedMPH,Gust SpeedMPH,PrecipitationIn,Events,Conditions,WindDirDegrees,DateUTC
12:15 AM,48.2,19.4,32,30.01,10.0,Calm,Calm,-,N/A,,Unknown,0,2013-04-30 06:15:00
12:35 AM,50.0,19.4,30,30.02,10.0,Calm,Calm,-,N/A,,Unknown,0,2013-04-30 06:35:00
12:55 AM,50.0,19.4,30,30.01,10.0,East,3.5,-,N/A,,Unknown,90,2013-04-30 06:55:00
1:15 AM,50.0,19.4,30,30.01,10.0,Calm,Calm,-,N/A,,Unknown,0,2013-04-30 07:15:00
1:35 AM,51.8,17.6,26,30.01,10.0,Calm,Calm,-,N/A,,Unknown,0,2013-04-30 07:35:00
1:55 AM,50.0,19.4,30,30.01,10.0,ESE,3.5,-,N/A,,Unknown,120,2013-04-30 07:55:00
2:15 AM,50.0,19.4,30,30.01,10.0,ESE,4.6,-,N/A,,Unknown,110,2013-04-30 08:15:00
2:35 AM,50.0,17.6,28,30.01,10.0,SE,6.9,-,N/A,,Unknown,130,2013-04-30 08:35:00
2:55 AM,50.0,19.4,30,30.00,10.0,ESE,9.2,-,N/A,,Unknown,120,2013-04-30 08:55:00
3:15 AM,46.4,19.4,34,30.00,10.0,ESE,6.9,-,N/A,,Unknown,110,2013-04-30 09:15:00
3:55 AM,46.4,19.4,34,29.99,10.0,ESE,6.9,-,N/A,,Unknown,110,2013-04-30 09:55:00
4:15 AM,44.6,19.4,37,29.99,10.0,ESE,9.2,-,N/A,,Unknown,120,2013-04-30 10:15:00
4:35 AM,44.6,19.4,37,29.99,10.0,SE,6.9,-,N/A,,Unknown,130,2013-04-30 10:35:00
4:55 AM,44.6,19.4,37,29.99,10.0,ESE,5.8,-,N/A,,Unknown,110,2013-04-30 10:55:00
5:15 AM,44.6,19.4,37,30.00,10.0,Calm,Calm,-,N/A,,Unknown,0,2013-04-30 11:15:00
5:35 AM,46.4,17.6,32,30.00,10.0,East,3.5,-,N/A,,Unknown,90,2013-04-30 11:35:00
5:55 AM,44.6,19.4,37,29.99,10.0,SE,5.8,-,N/A,,Unknown,130,2013-04-30 11:55:00
6:15 AM,44.6,19.4,37,30.00,10.0,ESE,8.1,-,N/A,,Unknown,120,2013-04-30 12:15:00
6:35 AM,44.6,19.4,37,30.00,10.0,ESE,5.8,-,N/A,,Unknown,120,2013-04-30 12:35:00
6:55 AM,44.6,19.4,37,30.01,10.0,SE,3.5,-,N/A,,Unknown,130,2013-04-30 12:55:00
7:15 AM,46.4,21.2,37,30.01,10.0,ESE,5.8,-,N/A,,Unknown,120,2013-04-30 13:15:00
7:35 AM,48.2,21.2,34,30.01,10.0,East,4.6,-,N/A,,Unknown,100,2013-04-30 13:35:00
7:55 AM,50.0,21.2,32,30.01,10.0,East,6.9,-,N/A,,Unknown,100,2013-04-30 13:55:00
8:15 AM,51.8,21.2,30,30.01,10.0,Calm,Calm,-,N/A,,Unknown,0,2013-04-30 14:15:00
8:35 AM,53.6,19.4,26,30.01,10.0,Calm,Calm,-,N/A,,Unknown,0,2013-04-30 14:35:00
8:55 AM,55.4,17.6,23,30.01,10.0,SW,12.7,17.3,N/A,,Unknown,230,2013-04-30 14:55:00
9:15 AM,57.2,17.6,21,30.02,10.0,SSW,5.8,-,N/A,,Unknown,210,2013-04-30 15:15:00
9:35 AM,59.0,17.6,20,30.01,10.0,SW,13.8,21.9,N/A,,Unknown,230,2013-04-30 15:35:00
9:55 AM,59.0,17.6,20,30.01,10.0,SW,17.3,27.6,N/A,,Unknown,230,2013-04-30 15:55:00
10:15 AM,59.0,17.6,20,30.01,10.0,West,13.8,29.9,N/A,,Unknown,270,2013-04-30 16:15:00
10:35 AM,59.0,17.6,20,29.99,10.0,SW,23.0,33.4,N/A,,Unknown,220,2013-04-30 16:35:00
10:55 AM,60.8,17.6,19,30.00,10.0,WSW,16.1,25.3,N/A,,Unknown,240,2013-04-30 16:55:00
11:15 AM,59.0,14.0,17,30.01,10.0,WSW,19.6,34.5,N/A,,Unknown,240,2013-04-30 17:15:00
11:35 AM,60.8,15.8,17,30.00,10.0,West,19.6,29.9,N/A,,Unknown,280,2013-04-30 17:35:00
11:55 AM,60.8,14.0,16,30.00,10.0,WSW,24.2,35.7,N/A,,Unknown,240,2013-04-30 17:55:00
12:15 PM,60.8,14.0,16,29.99,10.0,SW,17.3,23.0,N/A,,Unknown,230,2013-04-30 18:15:00
12:35 PM,60.8,14.0,16,29.98,10.0,SSW,17.3,28.8,N/A,,Unknown,210,2013-04-30 18:35:00
12:55 PM,59.0,12.2,16,29.99,10.0,SW,16.1,35.7,N/A,,Unknown,230,2013-04-30 18:55:00
1:15 PM,60.8,12.2,15,29.98,10.0,SW,24.2,35.7,N/A,,Unknown,230,2013-04-30 19:15:00
1:35 PM,60.8,12.2,15,29.97,10.0,SSW,21.9,33.4,N/A,,Unknown,210,2013-04-30 19:35:00
1:55 PM,62.6,12.2,14,29.97,10.0,SW,23.0,34.5,N/A,,Unknown,220,2013-04-30 19:55:00
2:15 PM,62.6,12.2,14,29.97,10.0,South,10.4,29.9,N/A,,Unknown,190,2013-04-30 20:15:00
2:35 PM,62.6,12.2,14,29.97,10.0,SW,17.3,42.6,N/A,,Unknown,230,2013-04-30 20:35:00
2:55 PM,62.6,12.2,14,29.97,10.0,SW,23.0,36.8,N/A,,Unknown,220,2013-04-30 20:55:00
3:15 PM,62.6,10.4,13,29.96,10.0,SW,15.0,43.7,N/A,,Unknown,230,2013-04-30 21:15:00
3:35 PM,62.6,12.2,14,29.96,10.0,SSW,11.5,20.7,N/A,,Unknown,200,2013-04-30 21:35:00
3:55 PM,60.8,12.2,15,29.95,10.0,South,17.3,28.8,N/A,,Unknown,190,2013-04-30 21:55:00
4:15 PM,62.6,12.2,14,29.94,10.0,SSW,24.2,38.0,N/A,,Unknown,210,2013-04-30 22:15:00
4:35 PM,60.8,12.2,15,29.95,10.0,SSW,10.4,17.3,N/A,,Unknown,200,2013-04-30 22:35:00
4:55 PM,60.8,10.4,14,29.94,10.0,SSW,16.1,34.5,N/A,,Unknown,200,2013-04-30 22:55:00
5:15 PM,60.8,10.4,14,29.94,10.0,SSW,23.0,36.8,N/A,,Unknown,210,2013-04-30 23:15:00
5:35 PM,62.6,10.4,13,29.92,10.0,South,26.5,36.8,N/A,,Unknown,180,2013-04-30 23:35:00
5:55 PM,62.6,10.4,13,29.94,10.0,SW,11.5,23.0,N/A,,Unknown,220,2013-04-30 23:55:00
6:15 PM,62.6,8.6,12,29.94,10.0,South,11.5,20.7,N/A,,Unknown,190,2013-05-01 00:15:00
6:35 PM,60.8,8.6,13,29.94,10.0,SW,13.8,35.7,N/A,,Unknown,220,2013-05-01 00:35:00
7:15 PM,60.8,8.6,13,29.93,10.0,SSW,23.0,31.1,N/A,,Unknown,200,2013-05-01 01:15:00
7:35 PM,59.0,8.6,14,29.93,10.0,SSW,16.1,28.8,N/A,,Unknown,200,2013-05-01 01:35:00
7:55 PM,59.0,10.4,15,29.94,10.0,SSW,10.4,18.4,N/A,,Unknown,210,2013-05-01 01:55:00
8:15 PM,59.0,10.4,15,29.94,10.0,SW,11.5,16.1,N/A,,Unknown,220,2013-05-01 02:15:00
8:35 PM,57.2,10.4,16,29.94,10.0,South,11.5,17.3,N/A,,Unknown,190,2013-05-01 02:35:00
8:55 PM,57.2,10.4,16,29.94,10.0,SSW,9.2,-,N/A,,Unknown,200,2013-05-01 02:55:00
9:35 PM,57.2,8.6,14,29.95,10.0,SSW,13.8,21.9,N/A,,Unknown,200,2013-05-01 03:35:00
9:55 PM,55.4,8.6,15,29.95,10.0,SSW,12.7,23.0,N/A,,Unknown,210,2013-05-01 03:55:00
10:15 PM,55.4,8.6,15,29.95,10.0,SSW,19.6,28.8,N/A,,Unknown,200,2013-05-01 04:15:00
10:35 PM,55.4,8.6,15,29.95,10.0,SSW,15.0,33.4,N/A,,Unknown,200,2013-05-01 04:35:00
10:55 PM,55.4,8.6,15,29.95,10.0,SSW,13.8,26.5,N/A,,Unknown,200,2013-05-01 04:55:00
11:15 PM,53.6,8.6,16,29.96,10.0,SSW,13.8,21.9,N/A,,Unknown,200,2013-05-01 05:15:00
11:55 PM,53.6,10.4,18,29.97,10.0,South,13.8,21.9,N/A,,Unknown,190,2013-05-01 05:55:00